Regional Weather Roundup
Issued by NWS

Home | Current Version | Previous Version | Text Only | Print | Product List | Glossary Off
Versions: 1 2 3 4 5 6 7 8 9 10 11 12 13 14 15 16 17 18 19 20 21 22 23 24 25 26 27 28 29 30 31 32 33 34 35 36 37 38 39 40 41 42 43 44 45 46 47 48 49 50

000
ASUS45 KPSR 011610
RWRAZ

ARIZONA HOURLY REGIONAL WEATHER ROUNDUP
NATIONAL WEATHER SERVICE PHOENIX AZ
900 AM MST SAT AUG 01 2015

NOTE: FAIR INDICATES FEW OR NO CLOUDS BELOW 12,000 FEET WITH NO
SIGNIFICANT WEATHER AND/OR OBSTRUCTIONS TO VISIBILITY.

AZZ001>003-036-011700-
NORTHWEST ARIZONA

CITY           SKY/WX    TMP DP  RH WIND       PRES   REMARKS
BULLHEAD CITY  CLOUDY    91  59  33 CALM      29.95R
KINGMAN        CLOUDY    84  55  36 SW12      30.13R
$$

AZZ004>008-015-016-018-011700-
NORTH CENTRAL ARIZONA

CITY           SKY/WX    TMP DP  RH WIND       PRES   REMARKS
GRAND CANYON   LGT RAIN  62  59  90 N3        30.37R
WILLIAMS       CLOUDY    66  54  63 NW8       30.43R
PRESCOTT       CLOUDY    72  59  63 NW3       30.23S
FLAGSTAFF      CLOUDY    68  53  58 CALM      30.37S
PAYSON         CLOUDY    73  55  53 CALM      30.24S
PAGE           CLOUDY    79  55  43 VRB6      30.17R
$$

AZZ009>014-017-011700-
NORTHEAST ARIZONA

CITY           SKY/WX    TMP DP  RH WIND       PRES   REMARKS
WINSLOW        NOT AVBL
SAINT JOHNS    PTSUNNY   72  55  55 SW3       30.26F
SHOW LOW       MOSUNNY   73  54  49 SW10G17   30.32S
$$

AZZ023-011700-
GREATER PHOENIX AREA

CITY           SKY/WX    TMP DP  RH WIND       PRES   REMARKS
PHOENIX        PTSUNNY   86  69  56 SW3       29.93R
GLENDALE       PTSUNNY   88  68  51 VRB5      29.94S
LUKE AFB       PTSUNNY   86  70  58 SW5       29.92S
DEER VALLEY    PTSUNNY   87  65  47 S5        29.94S
SCOTTSDALE     PTSUNNY   87  65  47 CALM      29.96S
MESA-GATEWAY   MOSUNNY   88  66  48 CALM      29.97S
CHANDLER       PTSUNNY   86  68  54 VRB5      29.95S
$$

AZZ027-028-011700-
SOUTHWEST MARICOPA COUNTY AND PINAL COUNTY

CITY           SKY/WX    TMP DP  RH WIND       PRES   REMARKS
CASA GRANDE    SUNNY     88  66  48 CALM      29.95S
GILA BEND      PTSUNNY   90  65  43 E3        29.91S
$$

AZZ503-504-507>509-011700-
SOUTHEAST ARIZONA

CITY           SKY/WX    TMP DP  RH WIND       PRES   REMARKS
TUCSON         SUNNY     84  62  47 S3        30.05S
DAVIS-MONTHAN  SUNNY     83  63  51 S6        30.04S
RYAN FIELD     SUNNY     84  64  51 NE3       30.03F
NOGALES        SUNNY     78  63  59 CALM      30.13S
SIERRA VISTA   SUNNY     78  62  57 SE8       30.19F
DOUGLAS          N/A    N/A N/A N/A MISG      30.16S
SAFFORD        MOSUNNY   82  62  50 SE8       30.08S
$$

AZZ020-021-025-026-031-011700-
SOUTHWEST ARIZONA

CITY           SKY/WX    TMP DP  RH WIND       PRES   REMARKS
YUMA           SUNNY    100  60  26 E9        29.86S HX 100
$$

CAZ031-033-041-043-047-048-061-011700-
SOUTHERN CALIFORNIA

CITY           SKY/WX    TMP DP  RH WIND       PRES   REMARKS
DOWNTOWN L.A.  NOT AVBL
L.A. AIRPORT   PTSUNNY   69  63  81 SW5       29.99S
SAN DIEGO      CLOUDY    70  62  76 CALM      30.00S
BURBANK        CLOUDY    69  62  78 S6        30.00R HAZE
ONTARIO        MOSUNNY   72  63  73 CALM      29.99F HAZE
RIVERSIDE      PTSUNNY   70  64  81 CALM      30.00S HAZE
PALM SPRINGS   SUNNY     92  56  29 E3        29.90S
EL CENTRO NAS  MOSUNNY   95  51  22 E8        29.86S
IMPERIAL       SUNNY     95  53  24 SE6       29.84S
BLYTHE         MOSUNNY   92  60  34 CALM      29.88S
NEEDLES        CLOUDY    92  59  33 CALM      29.95R
$$

NVZ020-UTZ003-011700-
SOUTHERN NEVADA-UTAH

CITY           SKY/WX    TMP DP  RH WIND       PRES   REMARKS
LAS VEGAS      CLOUDY    91  57  31 SE5       29.95R
SALT LAKE CITY MOSUNNY   79  40  24 S6        30.15S
$$

NMZ009-TXZ055-011700-
NEW MEXICO-WEST TEXAS

CITY           SKY/WX    TMP DP  RH WIND       PRES   REMARKS
ALBUQUERQUE    PTSUNNY   73  56  54 W5        30.29S
EL PASO        MOSUNNY   83  59  44 N9        30.15F
$$


........................KEY........................
SKY/WX - SKY CONDITION/WEATHER
TMP    - TEMPERATURE IN FAHRENHEIT
DP     - DEW POINT IN FAHRENHEIT
RH     - RELATIVE HUMIDITY IN PERCENT
WIND   - DIRECTION AND SPEED IN MILES PER HOUR (MPH)
VRB    - VARIABLE WIND DIRECTION
PRES   - MEAN SEA LEVEL PRESSURE IN INCHES OF MERCURY
         F - FALLING PRESSURE   R - RISING PRESSURE
         S - STEADY PRESSURE
VSB    - VISIBILITY IN MILES
HX     - HEAT INDEX IN FAHRENHEIT
WCI    - WIND CHILL INDEX IN FAHRENHEIT
TC     - TEMPERATURE IN CELSIUS WHICH IS ALSO KNOWN AS
         TEMPERATURE IN CENTIGRADE
AFB    - AIR FORCE BASE
         LUKE AFB IS LUKE AIR FORCE BASE
         DAVIS-MONTHAN IS DAVIS-MONTHAN AIR FORCE BASE
NAS    - NAVAL AIR STATION
         EL CENTRO NAS IS EL CENTRO NAVAL AIR STATION
N/A    - NOT AVAILABLE



USA.gov is the U.S. government's official web portal to all federal, state and local government web resources and services.